Regional Weather Roundup
Issued by NWS New Orleans/Baton Rouge, LA

Home | Current Version | Previous Version | Graphics & Text | Print | Product List | Glossary On
Versions: 1 2 3 4 5 6 7 8 9 10 11 12 13 14 15 16 17 18 19 20 21 22 23 24 25 26 27 28 29 30 31 32 33 34 35 36 37 38 39 40 41 42 43 44 45 46 47 48 49 50
476
ASUS44 KLIX 231905
RWRLIX
NEW ORLEANS REGIONAL WEATHER ROUNDUP
NATIONAL WEATHER SERVICE NEW ORLEANS LA
200 PM CDT WED APR 23 2014

NOTE: "FAIR" INDICATES FEW OR NO CLOUDS BELOW 12,000 FEET WITH NO
      SIGNIFICANT WEATHER AND/OR OBSTRUCTIONS TO VISIBILITY.
      SKY/WX - SKY CONDITION AND SIGNIFICANT WEATHER.
      TMP - AIR TEMPERATURE.     DP    - DEWPOINT TEMPERATURE.
      RH  - RELATIVE HUMIDITY.   PRES  - PRESSURE.
      HI  - HEAT INDEX.          WCI   - WIND CHILL INDEX.

*  THESE STATIONS ARE NOT NWS OR FAA STATIONS AND ARE NOT UNDER
   NWS QUALITY CONTROL.

LAZ038-040-048-061>063-065>067-069-232000-
SOUTHEAST LOUISIANA

CITY           SKY/WX    TMP DP  RH WIND       PRES   REMARKS
N.O. AUDUBON     N/A     84  61  45 MISG        N/A
N.O. INTL ARPT MOSUNNY   81  59  47 N8        29.95F
N.O. LAKEFRONT SUNNY     77  64  64 NW7       29.96F
N.O. DOWNTOWN* CLOUDY    81  57  44 E3        29.96S
SLIDELL        PTSUNNY   80  62  54 SW7       29.94F
BATON ROUGE    MOSUNNY   84  53  34 VRB5      29.95F
BOOTHVILLE     SUNNY     77  62  59 E3        29.97F
BELLE CHASSE   PTSUNNY   82  59  45 S5        29.94F
BOGALUSA*        N/A     82  51  33 CALM      29.96S
GALLIANO*      PTCLDY    80  60  49 CALM      29.96S
NEW ROADS*       N/A     81  55  41 MISG      29.95F
GONZALES*      MOCLDY    81  57  43 CALM      29.94F
HAMMOND*       MOSUNNY   84  50  30 NW6       29.95F
HOUMA*         MOSUNNY   82  55  39 N5        29.95F
PORT FOURCHON* PTCLDY    77  64  65 VRB5      29.98S

$$

MSZ070-080>082-232000-
SOUTHERN MISSISSIPPI

CITY           SKY/WX    TMP DP  RH WIND       PRES   REMARKS
MCCOMB         SUNNY     81  47  30 VRB3      29.96F
GULFPORT       MOSUNNY   80  64  58 S12       29.94F
BILOXI         SUNNY     76  67  71 SW13      29.94F
PASCAGOULA     MOSUNNY   78  65  63 S8        29.94F
STENNIS ARPT*  MOSUNNY   82  54  36 S7        29.94F

$$

COASTAL OBSERVATIONS
LAKE AND NEARSHORE STATIONS

STATION/POSITION TIME  TEMP    WIND        PRES    WAVE
                       AIR SEA DIR/SP/G            HT/PER
                 (UTC) (F)     (DEG/KT/KT) (MB)    (FT/S)
PASCAGOULA       1900   74     190/  8/ 10 1013.5
WAVELAND YACHT   1900   72 72  190/ 10/ 13 1013.5
GRAND ISLE       1900   74 71  150/  5/  7 1015.3
SOUTHWEST PASS   1900   79 60  190/  2/  3 1015.2
NEW CANAL        1900   74 70  350/  6/  7 1014.8
SHELL BEACH      1900   73 69  350/  4/  4 1014.2

OFFSHORE STATIONS

STATION/POSITION TIME  TEMP    WIND        PRES    WAVE
                       AIR SEA DIR/SP/G            HT/PER
                 (UTC) (F)     (DEG/KT/KT) (MB)    (FT/S)
64 S DAUPHIN ISL 1847   68 71   10/  6/  6 1014.6

$$




USA.gov is the U.S. government's official web portal to all federal, state and local government web resources and services.